SB KEPS @ AMSAT $ORB16112.N 2Line Orbital Elements 16112.AMSAT
HR AMSAT ORBITAL ELEMENTS FOR AMATEUR SATELLITES IN NASA FORMAT FROM WA5QGD FORT WORTH,TX April 21, 2016 BID: ORB16112.N
DECODE 2-LINE ELSETS WITH THE FOLLOWING KEY: 1 AAAAAU 00 0 0 BBBBB.BBBBBBBB .CCCCCCCC 00000-0 00000-0 0 DDDZ 2 AAAAA EEE.EEEE FFF.FFFF GGGGGGG HHH.HHHH III.IIII JJ.JJJJJJJJKKKKKZ KEY: A-CATALOGNUM B-EPOCHTIME C-DECAY D-ELSETNUM E-INCLINATION F-RAAN G-ECCENTRICITY H-ARGPERIGEE I-MNANOM J-MNMOTION K-ORBITNUM Z-CHECKSUM
TO ALL RADIO AMATEURS BT
AO-07 1 07530U 74089B 16112.79760411 -.00000046 00000-0 -15469-4 0 9990 2 07530 101.5693 84.9396 0012442 61.2637 2.2083 12.53620827896058 FO-29 1 24278U 96046B 16111.86292228 -.00000035 00000-0 19062-5 0 9999 2 24278 098.5841 044.5755 0350347 351.2453 008.2677 13.53067031971506 RS-22 1 27939U 03042A 16112.83500178 .00000322 00000-0 66440-4 0 9993 2 27939 97.8793 266.7083 0014230 121.2959 238.9646 14.66378609671569 HO-68 1 36122U 09072B 16112.66234254 -.00000059 00000-0 -43517-4 0 9995 2 36122 100.1493 150.7950 0008196 126.2561 233.9306 13.16333740305171 AO-73 1 39444U 13066AE 16111.73326512 .00000660 00000-0 89467-4 0 9999 2 39444 97.6869 167.5872 0058422 207.3083 152.5056 14.80983181129077 EO-79 1 40025U 14033R 16112.77374826 .00000666 00000-0 78801-4 0 9993 2 40025 97.9326 18.2391 0011269 247.5745 112.4277 14.87938816 99812 XW-2A 1 40903U 15049E 16112.84196226 .00004507 00000-0 13067-3 0 9990 2 40903 97.4486 127.3213 0015586 344.4623 98.0239 15.35963563 32907 XW-2C 1 40906U 15049H 16112.86409990 .00001590 00000-0 92527-4 0 9998 2 40906 97.4531 121.1617 0014140 228.9682 250.8101 15.13400123 32480 LILACSAT-2 1 40908U 15049K 16112.76519434 .00001377 00000-0 82769-4 0 9994 2 40908 97.4603 121.0019 0014935 223.1953 223.4488 15.12428408 32453 XW-2E 1 40909U 15049L 16112.85113692 .00002631 00000-0 14718-3 0 9993 2 40909 97.4538 121.3286 0013197 232.0249 249.5267 15.14262488 32490 UO-11 1 14781U 84021B 16112.68468829 .00000222 00000-0 33828-4 0 9992 2 14781 97.7555 166.3991 0009660 133.3536 226.8485 14.82721091727883 LO-19 1 20442U 90005G 16112.78038156 .00000021 00000-0 23786-4 0 9998 2 20442 98.5407 48.5169 0011010 317.8431 42.1906 14.32810822371273 AO-27 1 22825U 93061C 16111.91786162 .00000023 00000-0 26429-4 0 9990 2 22825 098.7538 067.8290 0009336 121.1774 239.0324 14.29950283176782 IO-26 1 22826U 93061D 16112.74479104 .00000021 00000-0 25542-4 0 9991 2 22826 98.7483 68.7908 0009984 111.3366 248.8883 14.30274299177333 GO-32 1 25397U 98043D 16112.77239084 -.00000000 00000-0 18732-4 0 9997 2 25397 98.5625 59.1932 0002142 117.9672 242.1724 14.23591005923831 NO-44 1 26931U 01043C 16112.21224883 -.00000012 00000-0 27247-4 0 9990 2 26931 67.0498 99.8974 0007497 265.4779 94.5466 14.30400938759995 SO-50 1 27607U 02058C 16112.69329812 .00000250 00000-0 35295-4 0 9993 2 27607 64.5574 333.4499 0073418 228.7162 130.8101 14.75127411716934 CO-55 1 27844U 03031E 16112.59732631 .00000107 00000-0 68436-4 0 9998 2 27844 98.6938 121.6938 0010765 122.9572 237.2642 14.21938312664407 CO-57 1 27848U 03031J 16112.27363576 .00000085 00000-0 58653-4 0 9990 2 27848 98.7035 121.4390 0010564 131.3016 228.9072 14.21566011664254 CO-65 1 32785U 08021C 16112.86688302 .00000524 00000-0 63432-4 0 9991 2 32785 97.6085 149.4105 0014684 120.4117 239.8553 14.87504434432256 PRISM 1 33493U 09002B 16112.84432812 .00002035 00000-0 19243-3 0 9998 2 33493 98.2247 330.2679 0016942 35.8259 324.4076 14.94796934392815 TISAT-1 1 36799U 10035E 16112.83455352 .00001020 00000-0 11261-3 0 9996 2 36799 98.0247 222.2661 0011194 270.2397 89.7537 14.89699591313033 ALMASAT-1 1 38078U 12006B 16112.42578474 .00025719 35516-5 36138-3 0 9990 2 38078 69.4501 169.1495 0397655 183.6131 176.2140 14.99811501221067 DUCHIFAT-1 1 40021U 14033M 16112.77750085 .00000933 00000-0 10460-3 0 9997 2 40021 97.9355 19.1866 0011812 246.4893 113.5083 14.89195736 99863 NANOSATCBR1 1 40024U 14033Q 16112.73624326 .00000839 00000-0 96016-4 0 9991 2 40024 97.9331 18.6140 0011060 246.2649 113.7407 14.88620208 99836 DTUSAT-2 1 40030U 14033W 16112.67396976 .00000653 00000-0 78087-4 0 9990 2 40030 97.9307 17.6386 0010740 240.8020 119.2122 14.87570421 99772 ANTELSAT 1 40034U 14033AA 16112.72655200 .00000567 00000-0 93187-4 0 9990 2 40034 97.9114 2.4710 0058538 205.9963 153.8306 14.73329805 98860 MET-2/21 1 22782U 93055A 16112.20064166 -.00000006 00000-0 -18475-4 0 9996 2 22782 82.5509 358.4614 0022529 171.3146 305.9080 13.83788350143331 NOAA-15 1 25338U 98030A 16112.44759914 .00000064 00000-0 45984-4 0 9999 2 25338 98.7834 116.4830 0010483 357.4758 2.6367 14.25718648932903 NOAA-18 1 28654U 05018A 16112.52725796 .00000039 00000-0 46442-4 0 9999 2 28654 99.1981 117.9840 0014484 169.6643 190.4829 14.12280024562730 NOAA-19 1 33591U 09005A 16112.54365040 .00000093 00000-0 75268-4 0 9997 2 33591 99.0348 68.8696 0014483 22.6679 337.5129 14.12064005371140 HUBBLE 1 20580U 90037B 16112.45538286 .00000992 00000-0 51061-4 0 9993 2 20580 28.4700 273.3474 0002697 322.5891 68.4694 15.08311977226539 ISS 1 25544U 98067A 16112.91042400 .00004109 00000-0 68836-4 0 9990 2 25544 51.6452 338.7394 0001840 62.5286 43.8309 15.54302308996220 CO-58 1 28895U 05043F 16112.74649999 .00000302 00000-0 67218-4 0 9995 2 28895 97.8293 289.5333 0017803 41.3678 318.8869 14.63164667558851 CAPE1 1 31130U 07012P 16112.77071393 .00000381 00000-0 91520-4 0 9999 2 31130 98.0277 70.3343 0098124 71.8974 289.2882 14.55891365477928 AAUSAT2 1 32788U 08021F 16112.81807801 .00001278 00000-0 12776-3 0 9997 2 32788 97.6094 157.5369 0013873 98.3964 261.8829 14.93082974432789 DO-64 1 32789U 08021G 16112.41071627 .00002026 00000-0 15515-3 0 9999 2 32789 97.6111 172.6308 0015647 94.6010 265.7003 15.02895151433477 CO-66 1 32791U 08021J 16112.09643606 .00000735 00000-0 82263-4 0 9998 2 32791 97.6095 151.6399 0015199 113.5821 246.6995 14.89675357432296 RS-30 1 32953U 08025A 16112.86369470 .00000010 00000-0 -13620-7 0 9992 2 32953 82.5016 141.6813 0020121 122.7856 237.5174 12.43068731359086 JUGNU 1 37839U 11058B 16112.36244921 .00000352 00000-0 45463-4 0 9993 2 37839 19.9602 128.0946 0018805 213.3152 269.7915 14.12535568233982 SRMSAT 1 37841U 11058D 16112.38556138 .00000336 00000-0 39724-4 0 9999 2 37841 19.9707 160.9758 0011971 127.3866 333.6515 14.10535594233658 AO-71 1 37854U 11061E 16112.08138057 .00001182 00000-0 74303-4 0 9992 2 37854 101.7078 125.8653 0173959 242.1342 116.2152 15.01835540243521 HRBE 1 37855U 11061F 16111.99281758 .00001806 00000-0 10649-3 0 9994 2 37855 101.7188 123.8415 0187923 246.4377 111.6995 15.00740675243414 HORYU-2 1 38340U 12025D 16112.66372223 .00000517 00000-0 85037-4 0 9990 2 38340 98.3518 96.4178 0011442 185.7020 174.4059 14.74967996211145 RS-40 1 38735U 12041C 16112.86275143 .00000040 00000-0 21992-3 0 9991 2 38735 82.4768 226.8714 0016340 223.4633 136.5159 12.42572510169375 BEESAT-3 1 39134U 13015E 16111.91395935 .00002259 00000-0 12840-3 0 9990 2 39134 064.8700 147.1866 0009116 254.2636 105.7484 15.15594145165051 BEESAT-2 1 39136U 13015G 16112.23133430 .00001713 00000-0 10612-3 0 9997 2 39136 64.8708 151.5464 0008339 253.7482 106.2725 15.13338507165389 ZACUBE-1 1 39417U 13066B 16112.23065024 .00000505 00000-0 71142-4 0 9992 2 39417 97.6858 167.5204 0059159 207.4718 152.3364 14.80329836130341 TRITON-1 1 39427U 13066M 16112.14211656 .00000359 00000-0 66421-4 0 9998 2 39427 97.6731 149.0681 0113379 259.6515 99.1893 14.67139138129156 GOMX-1 1 39430U 13066Q 16112.72706767 .00000521 00000-0 10514-3 0 9990 2 39430 97.6738 137.9541 0151147 294.0333 64.5097 14.58549431128493 LO-74 1 39440U 13066AA 16112.17202406 .00000428 00000-0 67753-4 0 9995 2 39440 97.6798 160.1577 0080203 227.5340 131.9072 14.75097324129873 SPROUT 1 39770U 14029E 16112.84415762 .00001723 00000-0 20713-3 0 9999 2 39770 97.8693 210.7258 0007914 264.5730 95.4553 14.85223117103574 EO-80 1 40032U 14033Y 16112.69753126 .00000655 00000-0 78399-4 0 9996 2 40032 97.9314 17.6721 0010742 240.8794 119.1347 14.87502925 99777 VELOX-1 1 40057U 14034E 16112.82273200 .00000890 00000-0 13501-3 0 9993 2 40057 98.1936 200.7829 0010435 335.1132 24.9567 14.76630846 97568 DAURIA DX 1 1 40071U 14037C 16112.85239090 .00000385 00000-0 57360-4 0 9995 2 40071 98.3300 201.5909 0007992 335.5155 24.5667 14.80781263 96619 UKUBE-1 1 40074U 14037F 16112.80636621 .00000901 00000-0 11809-3 0 9995 2 40074 98.3338 203.4423 0004148 348.2207 11.8901 14.82997021 96718 HODOYOSHI-1 1 40299U 14070B 16112.83170906 .00002042 00000-0 94607-4 0 9999 2 40299 97.4309 195.4532 0015005 124.1907 356.3860 15.21134377 80869 CHUBUSAT-1 1 40300U 14070C 16112.78884023 .00002235 00000-0 10749-3 0 9996 2 40300 97.4267 193.7990 0022619 132.4343 342.7829 15.19620912 80764 QSAT-EOS 1 40301U 14070D 16112.79188330 .00004552 00000-0 20777-3 0 9992 2 40301 97.4215 193.0760 0030818 133.2621 15.1702 15.20682148 80733 FIREBIRD FU3 1 40377U 15003B 16112.82644023 .00002746 00000-0 12917-3 0 9992 2 40377 99.0827 208.9990 0144666 316.1077 42.8727 15.11980508 67266 FIREBIRD FU4 1 40378U 15003C 16112.82315322 .00002804 00000-0 13162-3 0 9998 2 40378 99.0829 209.0073 0144890 316.0654 42.9123 15.11989438 67264 GRIFEX 1 40379U 15003D 16112.82833803 .00001992 00000-0 98587-4 0 9990 2 40379 99.0837 208.3366 0148584 319.1889 39.8282 15.10357275 67223 NO-84 1 40654U 15025D 16111.07033161 .00007511 00000-0 17333-3 0 00943 2 40654 055.0027 314.8252 0209392 289.1024 068.7346 15.24003643015172 NO-83 1 40655U 15025E 16111.02474330 .00012963 00000-0 27213-3 0 01021 2 40655 054.9884 310.5038 0193804 290.2673 067.7490 15.28229536015208 DEORBITSAIL 1 40719U 15032E 16112.18952035 .00000912 00000-0 14144-3 0 9995 2 40719 98.0239 4.3047 0018122 61.8436 298.4601 14.75439164 42082 NUDT-PHONESAT 1 40900U 15049B 16112.76812078 .00004952 00000-0 25819-3 0 9990 2 40900 97.4462 121.5142 0013204 251.4263 195.0463 15.16349889 32520 XW-2D 1 40907U 15049J 16112.86656344 .00001741 00000-0 10091-3 0 9999 2 40907 97.4499 121.0623 0013737 227.2051 252.2558 15.13428604 32489 XW-2F 1 40910U 15049M 16112.77057122 .00002657 00000-0 15048-3 0 9996 2 40910 97.4529 121.0974 0014591 227.1202 181.2871 15.13797665 32364 XW-2B 1 40911U 15049N 16112.86545291 .00001645 00000-0 95554-4 0 9993 2 40911 97.4549 121.2010 0013601 227.0102 252.1812 15.13415259 32380 DCBB 1 40912U 15049P 16112.85653044 .00002881 00000-0 15438-3 0 9994 2 40912 97.4542 121.7864 0015208 222.2485 258.5935 15.15707493 32429 TW-1C 1 40926U 15051B 16112.84446154 .00009854 00000-0 28835-3 0 9995 2 40926 97.2816 150.4036 0012641 248.0342 198.6709 15.35372963 32113 TW-1A 1 40928U 15051D 16112.74913595 .00004673 00000-0 15010-3 0 9999 2 40928 97.2762 149.7659 0012495 268.7647 183.6673 15.32708883 32071 IO-86 1 40931U 15052B 16112.60721059 .00000855 00000-0 30160-4 0 9993 2 40931 6.0017 358.4785 0013818 36.9039 323.2154 14.76450853 30550 GomX-3 1 40949U 98067HA 16112.82774694 .00034298 00000-0 24522-3 0 9998 2 40949 51.6366 324.8665 0003285 24.9338 335.1819 15.73401972 31177 LQSat 1 40958U 15057A 16112.78855868 .00000188 00000-0 37275-4 0 9995 2 40958 98.0173 188.4172 0017877 339.5605 20.4872 14.72849168 29080 AO-85 1 40967U 15058D 16111.35540844 .00000590 00000-0 79740-4 0 01029 2 40967 064.7791 061.1881 0209866 223.3946 135.0462 14.74939952014747 ATHENOXAT-1 1 41168U 15077C 16112.00946435 .00004557 00000-0 23456-3 0 9996 2 41168 14.9931 9.3478 0012775 294.3372 65.7548 15.09647799 19105 ChubuSat-2 1 41338U 16012B 16112.79910771 .00000976 00000-0 70988-4 0 9999 2 41338 31.0046 267.7512 0014343 210.0263 149.9551 14.99322306 9680 ChubuSat-3 1 41339U 16012C 16112.78888374 .00000899 00000-0 64493-4 0 9990 2 41339 31.0106 267.6741 0014196 215.8438 144.1236 14.99555903 9659 Horyu-4 1 41340U 16012D 16112.77507650 .00001507 00000-0 11166-3 0 9991 2 41340 31.0071 267.5450 0014766 219.5694 140.3864 14.99917755 9670 /EX
participants (1)
-
Ray Hoad